Tracking 29487 objects as of 11-Sep-2024
HD Live streaming from Space Station
objects crossing your sky now

ONEWEB-0060

Track ONEWEB-0060 now!
10-day predictions
ONEWEB-0060 is classified as:


NORAD ID: 45455
Int'l Code: 2020-020AH
Perigee: 1,223.5 km
Apogee: 1,226.1 km
Inclination: 87.9 °
Period: 109.8 minutes
Semi major axis: 7595 km
RCS: Unknown
Launch date: March 21, 2020
Source: United Kingdom (UK)
Launch site: TYURATAM MISSILE AND SPACE COMPLEX (TTMTR)
Your satellite tracking list
Your tracking list is empty




NASA's NSSDC Master Catalog

Two Line Element Set (TLE):
1 45455U 20020AH  24254.69004961 -.00000598  00000-0 -17224-2 0  9991
2 45455  87.8984 149.4228 0001740  70.1608 289.9707 13.11418193218075
Source of the keplerian elements: AFSPC